Location: ???
(32.3885°N, 98.2106°E)
Time: 20:17:24
(UTC+00:00)

Envisat - Visible Passes

Search period start: 06 October 2024 00:00
Search period end: 16 October 2024 00:00
Orbit: 762 x 764 km, 98.3° (Epoch: 06 October)

Date Brightness Start Highest point End Pass type
(mag) Time Alt. Az. Time Alt. Az. Time Alt. Az.
06 Oct 5.4 20:59:29 10° N 20:59:58 13° N 20:59:58 13° N visible
07 Oct 5.8 20:21:52 10° NNE 20:21:55 10° NNE 20:21:55 10° NNE visible
08 Oct 5.4 21:24:00 10° NNW 21:24:00 10° NNW 21:24:00 10° NNW visible
09 Oct 5.6 20:45:53 10° N 20:45:57 10° N 20:45:57 10° N visible
